CDT,Max TemperatureF,Mean TemperatureF,Min TemperatureF,Max Dew PointF,MeanDew PointF,Min DewpointF,Max Humidity, Mean Humidity, Min Humidity, Max Sea Level PressureIn, Mean Sea Level PressureIn, Min Sea Level PressureIn, Max VisibilityMiles, Mean VisibilityMiles, Min VisibilityMiles, Max Wind SpeedMPH, Mean Wind SpeedMPH, Max Gust SpeedMPH,PrecipitationIn, CloudCover, Events, WindDirDegrees
2013-7-1,78,66,55,57,53,46,100,65,34,30.23,30.20,30.15,10,10,10,8,1,,0.00,1,,48
2013-7-2,78,64,50,54,49,43,94,60,34,30.21,30.16,30.09,10,10,5,6,0,,0.00,1,,45
2013-7-3,78,64,50,59,51,46,100,65,32,30.10,30.05,29.98,10,10,10,5,0,,0.00,0,,130
2013-7-4,86,68,50,61,55,50,100,63,33,29.99,29.93,29.87,10,10,7,15,3,20,0.00,0,,176
2013-7-5,86,75,64,61,57,54,77,55,37,29.90,29.86,29.81,10,10,10,18,7,25,0.00,1,,176
2013-7-6,78,73,68,68,63,59,94,70,57,29.90,29.87,29.83,10,10,5,12,5,,0.03,3,Rain,170
2013-7-7,86,72,59,72,64,54,100,76,44,29.95,29.87,29.83,10,9,2,12,1,18,0.00,2,Rain-Thunderstorm,216
2013-7-8,78,66,55,64,59,54,94,80,54,30.05,30.00,29.95,10,10,5,0,0,,0.00,4,,-1
2013-7-9,78,68,59,68,63,57,100,85,61,30.00,29.87,29.76,10,7,0,14,3,21,0.16,4,Fog-Rain-Thunderstorm,291
2013-7-10,75,65,55,61,54,52,88,67,44,30.07,30.03,29.95,10,10,7,15,7,21,0.00,1,,311
2013-7-11,80,65,50,61,54,50,100,67,37,30.14,30.07,30.00,10,8,0,10,2,16,0.00,0,Fog,177
2013-7-12,86,75,64,63,58,54,73,56,40,30.02,29.96,29.90,10,10,2,18,7,24,0.03,0,,168
2013-7-13,75,70,64,68,63,55,94,80,53,30.09,30.02,29.92,10,10,1,15,6,22,1.36,6,Rain-Thunderstorm,162
2013-7-14,78,71,64,68,63,59,94,76,57,30.22,30.15,30.08,10,10,10,12,2,,0.00,6,Rain,174
2013-7-15,86,75,64,68,64,61,100,73,45,30.26,30.23,30.19,10,9,2,10,2,,0.00,2,,184
2013-7-16,86,75,64,70,66,63,100,71,45,30.22,30.20,30.18,10,9,3,12,4,21,0.00,1,,220
2013-7-17,87,76,64,70,66,63,100,69,43,30.25,30.21,30.13,10,10,5,12,3,21,0.00,1,,236
2013-7-18,89,79,69,70,67,64,94,65,43,30.12,29.92,29.73,10,10,10,20,6,29,0.00,1,,223
2013-7-19,78,73,64,68,60,54,83,62,44,29.90,29.82,29.71,10,10,10,20,9,24,0.00,2,Rain,288
2013-7-20,73,66,59,59,53,48,88,65,46,30.01,29.96,29.89,10,10,7,7,3,,0.00,4,,55
2013-7-21,77,64,50,61,54,45,88,68,54,30.01,29.93,29.82,10,10,10,10,3,,0.00,3,,116
2013-7-22,78,70,62,68,59,50,94,72,47,29.88,29.76,29.69,10,10,10,21,7,25,0.00,4,Rain,264
2013-7-23,73,63,53,54,50,46,88,65,41,30.05,30.00,29.89,10,10,10,7,3,,0.00,1,,5
2013-7-24,73,62,51,57,53,50,94,72,47,30.10,30.05,29.98,10,10,10,7,1,,0.00,5,,201
2013-7-25,77,65,53,63,57,52,94,74,50,29.98,29.95,29.90,10,10,0,13,4,20,0.03,3,Fog-Rain,266
2013-7-26,64,57,50,59,50,43,94,78,59,30.12,30.00,29.91,10,10,5,22,5,30,0.07,5,Rain,331
2013-7-27,59,52,44,48,44,41,93,76,59,30.11,30.02,29.96,10,10,10,23,7,30,0.02,7,Rain,332
2013-7-28,68,59,50,55,48,43,94,71,52,30.09,30.02,29.99,10,10,5,12,5,18,0.00,5,,348
2013-7-29,73,58,44,59,50,45,100,73,38,30.15,30.11,30.08,10,9,1,10,1,,0.00,2,Rain,195
2013-7-30,69,64,55,61,57,52,100,81,73,30.13,30.10,30.07,10,9,0,5,0,,0.00,6,Fog,160
2013-7-31,77,66,55,61,53,43,100,69,33,30.08,30.04,30.00,10,9,0,16,3,26,0.00,2,Fog,297